This demonstration page uses our WeatherBlox Daily Observations layout. Learn more.

Left ArrowRight Arrow

31.84235, -102.49876

Hourly Observations for August 13, 2017

Temp ( °F °C ) Dew Point ( °F °C ) Humidity (%) Winds ( mph kmh ) Pressure ( in mb ) Visibility ( mi km ) Precip ( " mm )
12:53 am 00:53 Clear 73 22.8 67 19.4 81 81 S 12 19 29.88 1012 10 16 0.00 0.00
1:53 am 01:53 Clear 74 23.3 68 20 82 82 SSW 3 6 29.86 1011 10 16 0.00 0.00
2:53 am 02:53 Clear 74 23.3 68 20 82 82 Calm 29.85 1011 10 16 0.00 0.00
3:53 am 03:53 Clear 74 23.3 68 20 82 82 SSW 3 6 29.84 1011 10 16 0.00 0.00
4:53 am 04:53 Mostly Clear 72 22.2 67 19.4 84 84 ESE 9 15 29.84 1011 10 16 0.00 0.00
5:53 am 05:53 Clear 71 21.7 67 19.4 87 87 ESE 8 13 29.83 1010 10 16 0.00 0.00
6:53 am 06:53 Clear 70 21.1 67 19.4 90 90 SE 8 13 29.84 1011 10 16 0.00 0.00
7:53 am 07:53 Sunny 71 21.7 68 20 90 90 ESE 6 9 29.84 1011 10 16 0.00 0.00
8:53 am 08:53 Sunny 75 23.9 69 20.6 82 82 SSE 9 15 29.85 1011 10 16 0.00 0.00
9:53 am 09:53 Sunny 78 25.6 68 20 71 71 SSE 7 11 29.85 1011 10 16 0.00 0.00
10:53 am 10:53 Sunny 82 27.8 68 20 63 63 SSW 6 9 29.86 1011 10 16 0.00 0.00
11:53 am 11:53 Sunny 85 29.4 68 20 57 57 VRB 3 6 29.85 1011 10 16 0.00 0.00
12:53 pm 12:53 Sunny 89 31.7 67 19.4 48 48 VRB 6 9 29.83 1010 10 16 0.00 0.00
1:53 pm 13:53 Sunny 92 33.3 65 18.3 41 41 VRB 3 6 29.81 1009 10 16 0.00 0.00
2:53 pm 14:53 Sunny 95 35 63 17.2 35 35 W 5 7 29.78 1008 10 16 0.00 0.00
3:53 pm 15:53 Sunny 96 35.6 62 16.7 32 32 SSW 8 13 29.74 1007 10 16 0.00 0.00
4:53 pm 16:53 Mostly Sunny 96 35.6 61 16.1 31 31 ESE 7 11 29.72 1006 10 16 0.00 0.00
5:01 pm 17:01 Mostly Cloudy with Nearby Thunderstorms 98 36.7 63 17.2 32 32 SSE 8 13 29.59 1002 10 16 0.00 0.00
5:23 pm 17:23 Mostly Cloudy with Thunderstorms 85 29.4 65 18.3 51 51 SSW 28 44 29.65 1004 10 16 0.00 0.00
5:45 pm 17:45 Windy with Storms Likely 77 25 71 21.7 82 82 SE 21 33 29.77 1008 4 6 0.09 2.29
5:53 pm 17:53 Mostly Cloudy with Thunderstorms 76 24.4 71 21.7 85 85 SE 16 26 29.80 1009 10 16 0.09 2.29
6:17 pm 18:17 Partly Cloudy with Nearby Thunderstorms 79 26.1 70 21.1 74 74 S 17 28 29.74 1007 10 16 0.00 0.03
6:26 pm 18:26 Sunny 80 26.7 71 21.7 74 74 SE 15 24 29.71 1006 10 16 0.00 0.03
6:43 pm 18:43 Mostly Cloudy with Nearby Thunderstorms 81 27.2 69 20.6 67 67 S 15 24 29.71 1006 10 16 0.00 0.03
6:53 pm 18:53 Partly Cloudy with Nearby Thunderstorms 81 27.2 68 20 65 65 SSE 14 22 29.75 1008 10 16 0.00 0.03
7:11 pm 19:11 Partly Cloudy with Thunderstorms 82 27.8 68 20 63 63 S 12 19 29.71 1006 10 16 0.00 0.00
7:28 pm 19:28 Partly Cloudy with Nearby Thunderstorms 82 27.8 67 19.4 60 60 W 8 13 29.71 1006 10 16 0.00 0.00
7:50 pm 19:50 Cloudy with Thunderstorms 81 27 70 21 70 70 NNE 6 9 29.71 1006 10 16 0.00 0.00
7:53 pm 19:53 Cloudy with Thunderstorms 81 27.2 68 20 65 65 NE 5 7 29.79 1009 10 16 0.00 0.00
8:05 pm 20:05 Cloudy with Nearby Thunderstorms 80 26.7 69 20.6 69 69 NNE 3 6 29.77 1008 8 13 0.00 0.03
8:15 pm 20:15 Cloudy with Light Rain 78 25.6 71 21.7 79 79 NE 6 9 29.77 1008 7 11 0.00 0.03
8:27 pm 20:27 Cloudy with Nearby Thunderstorms 78 25.6 71 21.7 79 79 Calm 29.77 1008 7 11 0.00 0.00
8:45 pm 20:45 Mostly Cloudy with Thunderstorms 77 25 71 21.7 82 82 E 10 17 29.77 1008 10 16 0.00 0.00
8:53 pm 20:53 Mostly Cloudy with Thunderstorms 76 24.4 71 21.7 85 85 E 10 17 29.82 1010 10 16 0.00 0.00
8:56 pm 20:56 Partly Cloudy 77 25 70 21.1 79 79 E 9 15 29.80 1009 10 16 0.00 0.00
9:48 pm 21:48 Cloudy with Nearby Thunderstorms 75 24 70 21 83 83 E 6 9 29.85 1011 10 16 0.00 0.00
9:53 pm 21:53 Cloudy with Nearby Thunderstorms 76 24.4 70 21.1 82 82 E 7 11 29.87 1012 10 16 0.00 0.00
10:02 pm 22:02 Cloudy with Thunderstorms 75 23.9 70 21.1 84 84 ENE 9 15 29.88 1012 10 16 0.00 0.00
10:17 pm 22:17 Cloudy 75 23.9 68 20 79 79 ENE 9 15 29.88 1012 10 16 0.00 0.00
10:53 pm 22:53 Mostly Cloudy with Light Rain 75 23.9 69 20.6 82 82 NNW 6 9 29.87 1011 10 16 0.00 0.00
11:53 pm 23:53 Mostly Clear with Light Rain 74 23.3 71 21.7 91 91 E 7 11 29.78 1008 10 16 0.00 0.00

Powered by AerisWeather